TimeEDT,TemperatureF,Dew PointF,Humidity,Sea Level PressureIn,VisibilityMPH,Wind Direction,Wind SpeedMPH,Gust SpeedMPH,PrecipitationIn,Events,Conditions,WindDirDegrees,DateUTC
12:15 AM,39.0,37.8,95,29.78,2.5,Calm,Calm,-,0.01,Rain,Rain,0,2013-04-01 04:15:00
12:35 AM,39.0,38.1,97,29.76,2.5,Calm,Calm,-,0.03,Rain,Rain,0,2013-04-01 04:35:00
12:55 AM,39.0,38.3,97,29.75,2.5,Calm,Calm,-,0.07,Rain,Rain,0,2013-04-01 04:55:00
1:15 AM,39.4,38.7,97,29.75,3.0,ESE,5.8,-,0.05,Rain,Heavy Rain,120,2013-04-01 05:15:00
1:35 AM,38.1,36.1,93,29.75,2.5,ESE,6.9,-,0.15,,Unknown,120,2013-04-01 05:35:00
1:55 AM,36.3,34.3,93,29.75,3.0,SE,3.5,-,0.24,Snow,Light Snow,140,2013-04-01 05:55:00
2:15 AM,34.3,32.9,94,29.74,3.0,Calm,Calm,-,0.06,Snow,Light Snow,0,2013-04-01 06:15:00
2:35 AM,32.9,32.0,96,29.72,2.5,Calm,Calm,-,0.10,Snow,Light Snow,0,2013-04-01 06:35:00
2:55 AM,32.5,32.0,98,29.71,1.5,Calm,Calm,-,0.12,Snow,Light Snow,0,2013-04-01 06:55:00
3:15 AM,32.4,32.0,99,29.70,1.0,Calm,Calm,-,0.01,Snow,Light Snow,0,2013-04-01 07:15:00
3:35 AM,32.4,32.0,99,29.68,2.0,Calm,Calm,-,0.02,Snow,Light Snow,0,2013-04-01 07:35:00
3:55 AM,32.5,32.2,99,29.67,3.0,Calm,Calm,-,0.03,Snow,Light Snow,0,2013-04-01 07:55:00
4:15 AM,32.5,32.4,99,29.65,5.0,Calm,Calm,-,N/A,,Unknown,0,2013-04-01 08:15:00
4:35 AM,32.5,32.4,99,29.64,4.0,Calm,Calm,-,N/A,,Unknown,0,2013-04-01 08:35:00
4:55 AM,32.5,32.4,99,29.63,7.0,Calm,Calm,-,N/A,,Unknown,0,2013-04-01 08:55:00
5:15 AM,32.9,32.5,99,29.62,5.0,Calm,Calm,-,N/A,,Unknown,0,2013-04-01 09:15:00
5:35 AM,32.9,32.9,100,29.62,7.0,Calm,Calm,-,N/A,,Unknown,0,2013-04-01 09:35:00
5:55 AM,32.9,32.9,100,29.61,5.0,Calm,Calm,-,0.01,,Unknown,0,2013-04-01 09:55:00
6:15 AM,32.9,32.5,99,29.62,3.0,Calm,Calm,-,N/A,,Unknown,0,2013-04-01 10:15:00
6:35 AM,32.9,32.5,99,29.62,3.0,Calm,Calm,-,N/A,,Unknown,0,2013-04-01 10:35:00
6:55 AM,32.9,32.5,99,29.62,1.5,Calm,Calm,-,N/A,,Light Drizzle,0,2013-04-01 10:55:00
7:15 AM,32.9,32.9,100,29.62,1.5,Calm,Calm,-,N/A,Rain,Light Rain,0,2013-04-01 11:15:00
7:35 AM,32.9,32.9,100,29.62,2.0,Calm,Calm,-,N/A,Rain,Light Rain,0,2013-04-01 11:35:00
7:55 AM,33.3,33.3,100,29.62,1.2,Calm,Calm,-,0.01,,Light Drizzle,0,2013-04-01 11:55:00
8:15 AM,33.3,33.3,100,29.62,1.5,Calm,Calm,-,N/A,,Mist,0,2013-04-01 12:15:00
8:35 AM,33.8,33.8,100,29.62,3.0,Calm,Calm,-,N/A,,Mist,0,2013-04-01 12:35:00
8:55 AM,34.3,34.3,100,29.61,4.0,Calm,Calm,-,N/A,,Mist,0,2013-04-01 12:55:00
9:15 AM,35.1,35.1,100,29.60,5.0,Calm,Calm,-,N/A,,Mist,0,2013-04-01 13:15:00
9:35 AM,36.1,36.0,99,29.59,5.0,Calm,Calm,-,N/A,,Mist,0,2013-04-01 13:35:00
9:55 AM,37.8,37.6,99,29.58,10.0,Calm,Calm,-,N/A,,Unknown,0,2013-04-01 13:55:00
10:15 AM,41.2,40.1,96,29.57,10.0,Calm,Calm,-,N/A,,Unknown,0,2013-04-01 14:15:00
10:35 AM,42.8,39.7,89,29.56,10.0,Calm,Calm,-,N/A,,Unknown,0,2013-04-01 14:35:00
10:55 AM,44.2,38.5,80,29.56,10.0,WNW,4.6,-,N/A,,Unknown,300,2013-04-01 14:55:00
11:15 AM,46.2,38.5,74,29.56,10.0,WSW,8.1,-,N/A,,Unknown,250,2013-04-01 15:15:00
11:35 AM,47.5,38.7,71,29.56,10.0,SW,8.1,16.1,N/A,,Unknown,220,2013-04-01 15:35:00
11:55 AM,47.3,37.6,69,29.56,10.0,West,4.6,-,N/A,,Unknown,280,2013-04-01 15:55:00
12:15 PM,47.7,37.8,69,29.55,10.0,West,5.8,-,N/A,,Unknown,270,2013-04-01 16:15:00
12:35 PM,48.7,37.6,65,29.54,10.0,Calm,Calm,-,N/A,,Unknown,0,2013-04-01 16:35:00
12:55 PM,50.7,39.4,65,29.53,10.0,East,4.6,-,N/A,,Unknown,80,2013-04-01 16:55:00
1:15 PM,49.1,38.1,66,29.52,10.0,Calm,Calm,-,N/A,,Unknown,0,2013-04-01 17:15:00
1:35 PM,50.4,39.0,65,29.50,10.0,SSE,4.6,-,N/A,,Unknown,150,2013-04-01 17:35:00
1:55 PM,50.0,38.5,65,29.49,10.0,Calm,Calm,-,N/A,,Unknown,0,2013-04-01 17:55:00
2:15 PM,49.6,37.6,63,29.48,10.0,Calm,Calm,-,N/A,,Unknown,0,2013-04-01 18:15:00
2:35 PM,49.6,39.7,69,29.49,10.0,West,8.1,-,N/A,,Light Drizzle,280,2013-04-01 18:35:00
2:55 PM,47.3,38.7,72,29.51,7.0,West,16.1,21.9,N/A,Rain,Rain,280,2013-04-01 18:55:00
3:15 PM,46.4,38.1,73,29.52,10.0,West,9.2,-,N/A,Rain,Light Rain,270,2013-04-01 19:15:00
3:35 PM,46.4,38.1,73,29.51,10.0,West,6.9,-,N/A,Rain,Light Rain,270,2013-04-01 19:35:00
3:55 PM,46.8,37.8,71,29.52,10.0,WNW,9.2,-,N/A,Rain,Light Rain,290,2013-04-01 19:55:00
4:15 PM,46.9,37.6,70,29.52,10.0,West,11.5,20.7,N/A,,Light Drizzle,270,2013-04-01 20:15:00
4:35 PM,43.9,36.0,74,29.55,10.0,West,13.8,24.2,N/A,,Unknown,270,2013-04-01 20:35:00
4:55 PM,43.7,35.6,73,29.56,10.0,West,9.2,24.2,N/A,Rain,Light Rain,280,2013-04-01 20:55:00
5:15 PM,42.1,34.9,76,29.57,10.0,WNW,11.5,16.1,N/A,,Light Drizzle,290,2013-04-01 21:15:00
5:35 PM,41.9,32.0,68,29.58,10.0,West,11.5,18.4,N/A,,Unknown,270,2013-04-01 21:35:00
5:55 PM,42.3,31.5,66,29.58,10.0,West,10.4,23.0,N/A,,Unknown,280,2013-04-01 21:55:00
6:15 PM,40.3,29.7,66,29.60,10.0,West,19.6,28.8,N/A,,Unknown,270,2013-04-01 22:15:00
6:35 PM,40.1,24.4,54,29.61,10.0,West,15.0,31.1,N/A,,Unknown,280,2013-04-01 22:35:00
6:55 PM,39.2,22.3,51,29.61,10.0,West,9.2,23.0,N/A,,Unknown,280,2013-04-01 22:55:00
7:15 PM,38.5,17.4,43,29.62,10.0,West,15.0,32.2,N/A,,Unknown,280,2013-04-01 23:15:00
7:35 PM,37.8,15.1,40,29.63,10.0,West,12.7,23.0,N/A,,Unknown,270,2013-04-01 23:35:00
7:55 PM,37.4,12.2,36,29.64,10.0,West,11.5,23.0,N/A,,Unknown,270,2013-04-01 23:55:00
8:15 PM,36.7,10.6,34,29.67,10.0,West,16.1,28.8,N/A,,Unknown,280,2013-04-02 00:15:00
8:35 PM,36.0,10.8,35,29.68,10.0,WNW,13.8,29.9,N/A,,Unknown,290,2013-04-02 00:35:00
8:55 PM,35.4,10.6,36,29.68,10.0,West,12.7,26.5,N/A,,Unknown,280,2013-04-02 00:55:00
9:15 PM,34.7,11.3,38,29.69,10.0,West,20.7,32.2,N/A,,Unknown,260,2013-04-02 01:15:00
9:35 PM,33.8,12.0,41,29.69,10.0,West,16.1,34.5,N/A,,Unknown,270,2013-04-02 01:35:00
9:55 PM,33.4,12.6,42,29.70,10.0,West,11.5,27.6,N/A,,Unknown,280,2013-04-02 01:55:00
10:15 PM,32.9,13.5,45,29.71,10.0,WNW,15.0,19.6,N/A,,Unknown,290,2013-04-02 02:15:00
10:35 PM,32.7,12.9,44,29.71,10.0,West,11.5,31.1,N/A,,Unknown,280,2013-04-02 02:35:00
10:55 PM,32.4,13.1,45,29.72,10.0,West,10.4,25.3,N/A,,Unknown,260,2013-04-02 02:55:00
11:15 PM,32.0,12.9,45,29.72,10.0,WNW,12.7,21.9,N/A,,Unknown,290,2013-04-02 03:15:00
11:35 PM,32.0,12.9,45,29.72,10.0,West,15.0,25.3,N/A,,Unknown,280,2013-04-02 03:35:00